Location: Oberwangen
(47.4286°N, 8.9679°E)
Time: 09:22:23
(UTC+00:00)

Cosmos 1812 Rocket - Pass Details

Date: 20 June 2021
Orbit: 606 x 631 km, 82.5° (Epoch: 04 August)

Event Time Altitude Azimuth Distance (km) Brightness Sun altitude
Rises 22:51:20 0° 353° (N) 2,882 8.7 -18.7°
Reaches altitude 10° 22:53:35 10° 357° (N) 1,976 7.4 -18.8°
Maximum altitude 22:57:55 63° 79° (E) 689 3.7 -18.9°
Enters shadow 22:59:22 39° 143° (SE) 926 4.0 -18.9°
